TimeEDT,TemperatureF,Dew PointF,Humidity,Sea Level PressureIn,VisibilityMPH,Wind Direction,Wind SpeedMPH,Gust SpeedMPH,PrecipitationIn,Events,Conditions,WindDirDegrees,DateUTC
12:54 AM,25.0,19.0,78,29.70,-9999.0,North,-9999.0,-,N/A,,Unknown,0,2013-03-23 04:54:00
1:54 AM,24.1,19.9,84,29.70,-9999.0,North,-9999.0,-,N/A,,Unknown,0,2013-03-23 05:54:00
2:54 AM,24.1,21.0,88,29.68,-9999.0,North,-9999.0,-,N/A,,Unknown,0,2013-03-23 06:54:00
3:54 AM,23.0,21.0,92,29.65,-9999.0,North,-9999.0,-,0.01,,Unknown,0,2013-03-23 07:54:00
4:54 AM,23.0,21.0,92,29.63,-9999.0,North,-9999.0,-,N/A,,Unknown,0,2013-03-23 08:54:00
5:54 AM,25.0,21.0,85,29.65,-9999.0,North,-9999.0,-,N/A,,Unknown,0,2013-03-23 09:54:00
6:54 AM,26.1,21.0,81,29.64,-9999.0,North,-9999.0,-,N/A,,Unknown,0,2013-03-23 10:54:00
7:54 AM,26.1,21.0,81,29.64,-9999.0,North,-9999.0,-,N/A,,Unknown,0,2013-03-23 11:54:00
8:54 AM,28.0,21.9,78,29.64,-9999.0,North,-9999.0,-,N/A,,Unknown,0,2013-03-23 12:54:00
9:54 AM,28.9,19.9,69,29.64,-9999.0,North,-9999.0,-,N/A,,Unknown,0,2013-03-23 13:54:00
10:54 AM,30.0,21.0,69,29.62,-9999.0,North,-9999.0,-,N/A,,Unknown,0,2013-03-23 14:54:00
11:54 AM,33.1,19.0,56,29.60,-9999.0,North,-9999.0,-,N/A,,Unknown,0,2013-03-23 15:54:00
12:54 PM,33.1,21.0,61,29.62,-9999.0,North,-9999.0,-,N/A,,Unknown,0,2013-03-23 16:54:00
1:54 PM,33.1,23.0,66,29.62,-9999.0,North,-9999.0,-,N/A,,Unknown,0,2013-03-23 17:54:00
2:54 PM,34.0,23.0,64,29.65,-9999.0,North,-9999.0,-,N/A,,Unknown,0,2013-03-23 18:54:00
3:54 PM,33.1,21.9,64,29.67,-9999.0,North,-9999.0,-,N/A,,Unknown,0,2013-03-23 19:54:00
4:54 PM,32.0,23.0,69,29.68,-9999.0,North,-9999.0,-,N/A,,Unknown,0,2013-03-23 20:54:00
5:54 PM,32.0,23.0,69,29.70,-9999.0,North,-9999.0,-,N/A,,Unknown,0,2013-03-23 21:54:00
6:54 PM,30.9,23.0,72,29.72,-9999.0,North,-9999.0,-,N/A,,Unknown,0,2013-03-23 22:54:00
7:54 PM,30.9,23.0,72,29.74,-9999.0,North,-9999.0,-,N/A,,Unknown,0,2013-03-23 23:54:00
8:54 PM,30.9,23.0,72,29.76,-9999.0,North,-9999.0,-,N/A,,Unknown,0,2013-03-24 00:54:00
9:54 PM,32.0,21.9,66,29.76,-9999.0,North,-9999.0,-,N/A,,Unknown,0,2013-03-24 01:54:00
10:54 PM,32.0,21.9,66,29.76,-9999.0,North,-9999.0,-,N/A,,Unknown,0,2013-03-24 02:54:00
11:54 PM,32.0,21.9,66,29.74,-9999.0,North,-9999.0,-,N/A,,Unknown,0,2013-03-24 03:54:00